Regional Weather Roundup
Issued by NWS Cleveland, OH

Home | Current Version | Previous Version | Graphics & Text | Print | Product List | Glossary On
Versions: 1 2 3 4 5 6 7 8 9 10 11 12 13 14 15 16 17 18 19 20 21 22 23 24 25 26 27 28 29 30 31 32 33 34 35 36 37 38 39 40 41 42 43 44 45 46 47 48 49 50
000
ASUS41 KCLE 311100
RWRCLE
OHIO REGIONAL WEATHER ROUNDUP
NATIONAL WEATHER SERVICE WILMINGTON, OH
600 AM EST SAT JAN 31 2015

NOTE: "FAIR" INDICATES FEW OR NO CLOUDS BELOW 12,000 FEET WITH NO
SIGNIFICANT WEATHER AND/OR OBSTRUCTIONS TO VISIBILITY.

OHZ001>008-015>018-024>027-034-035-043-044-311200-
   NORTHWEST OHIO

CITY           SKY/WX    TMP DP  RH WIND       PRES   REMARKS
DEFIANCE       PTCLDY    15  10  80 S5        30.32F WCI   8
FINDLAY        CLEAR     12   7  80 S7        30.32F WCI   1
TOLEDO EXPRESS PTCLDY    12   8  84 S5        30.32F WCI   4
TOLEDO EXEC    PTCLDY    16   9  74 S6        30.34F WCI   7
LIMA           CLEAR     16  10  77 S9        30.32S WCI   4
$$

OHZ009>014-019>023-028>033-038-089-311200-
   NORTHEAST OHIO

CITY           SKY/WX    TMP DP  RH WIND       PRES   REMARKS
CLE-HOPKINS    MOCLDY    10   4  76 SW6       30.37S WCI   0
CLE-LAKEFRONT  CLOUDY    13   5  70 SE9       30.35S WCI   1
CUY CO. ARPT   NOT AVBL
LORAIN-ELYRIA  CLOUDY     7   3  84 SW7       30.34S WCI  -5
ASHTABULA      CLOUDY     4   0  83 S5        30.34S WCI  -5
AKRON-CANTON   CLOUDY     7   2  80 S6        30.32F WCI  -3
WOOSTER        NOT AVBL
MANSFIELD      PTCLDY    10   6  84 S6        30.30F WCI   0
YOUNGSTOWN     MOCLDY     5   2  87 S5        30.32S WCI  -4
$$

OHZ042-051>053-060>062-070>072-077>081-311200-
  SOUTHWEST OHIO

CITY           SKY/WX    TMP DP  RH WIND       PRES   REMARKS
CINC-COVINGTON CLEAR     19  12  74 S5        30.35F WCI  12
CINC-LUNKEN    CLEAR     15  13  91 CALM      30.40F
HAMILTON       CLEAR     13  10  88 CALM      30.37F
DAYTON         NOT AVBL
WRIGHT-PAT AFB CLEAR     13  10  87 SE2       30.36S
DAYTON GENERAL CLEAR     17  12  80 S6        30.34F WCI   9
WILMINGTON     CLEAR     16  10  77 S7        30.34F WCI   6
$$

OHZ036-037-039>041-045>050-054>059-063>069-073>076-082>088-311200-
  CENTRAL AND SOUTHEAST OHIO

CITY           SKY/WX    TMP DP  RH WIND       PRES   REMARKS
COLUMBUS       PTCLDY    12   8  84 CALM      30.37F
OSU AIRPORT    CLEAR     13   8  81 CALM      30.36S
BOLTON FIELD   NOT AVBL
RICKENBACK AFB NOT AVBL
NEWARK         CLEAR      7   1  76 CALM      30.37S
MARION         CLEAR      8   3  80 S7        30.34F WCI  -3
LANCASTER      CLEAR      9   5  84 CALM      30.38S
ZANESVILLE     PTCLDY     4   0  83 CALM      30.38S
NEW PHILLY     CLOUDY     4   0  83 CALM      30.39R
$$


USA.gov is the U.S. government's official web portal to all federal, state and local government web resources and services.